Regional Weather Roundup
Issued by NWS

Home | Current Version | Previous Version | Text Only | Print | Product List | Glossary On
Versions: 1 2 3 4 5 6 7 8 9 10 11 12 13 14 15 16 17 18 19 20 21 22 23 24 25 26 27 28 29 30 31 32 33 34 35 36 37 38 39 40 41 42 43 44 45 46 47 48 49 50
000
ASUS42 KTBW 291210
RWRFL
FLORIDA REGIONAL WEATHER ROUNDUP
NATIONAL WEATHER SERVICE TAMPA BAY RUSKIN FL
700 AM EST MON DEC 29 2014

NOTE: "FAIR" INDICATES FEW OR NO CLOUDS BELOW 12,000 FEET WITH NO
SIGNIFICANT WEATHER AND/OR OBSTRUCTIONS TO VISIBILITY.


FLZ001>010-012>015-112-114-115-291300-
PANHANDLE FLORIDA

CITY           SKY/WX    TMP DP  RH WIND       PRES   REMARKS
PENSACOLA      LGT RAIN  57  55  93 SE8       30.03S
PENSACOLA NAS  CLOUDY    58  56  93 E6        30.04
MILTON NAS     CLOUDY    57  56  96 E10       30.02F
CRESTVIEW      RAIN      58  57  97 NE6       30.05F
DUKE FIELD     LGT RAIN  58  57  96 NE2       30.05R
VALPARAISO     RAIN      58  58  97 E7        30.05S
MARY ESTHER    RAIN      59  55  88 E3        30.05R
PANAMA CITY    LGT RAIN  63  61  93 N8        30.04R FOG
TYNDALL AFB    DRIZZLE   66  66 100 N9        30.05R
APALACHICOLA   MOCLDY    71  67  87 S12       30.03R

STATION/POSITION SKY/WX   TEMP    WIND        PRES    WAVE   SWELL
                          AIR SEA DIR/SP/G            HT/PER HT/PER
                          (F)     (DEG/KT/KT) (MB)    (FT/S) (FT/S)
30.1N   87.6W              61 67   80/ 14/ 16 1016.8R   2/ 3   2/ 7
29.2N   88.2W              63 73   50/ 14/ 16 1017.8R   4/ 5   2/ 7
28.7N   86.0W              74 74  210/ 14/ 17 1017.1    3/ 5   2/ 7
PANAMA CITY BEAC           63 62  360/  7/ 12 1017.2R
CAPE SAN BLAS    NOT AVBL
TOWER C                    71     200/ 17/ 17 1017.0R
28.5N   84.5W              73 71  200/ 10/ 12 1017.9R   2/ 5   2/ 6

$$
FLZ011-016>038-118-127-128-134-139-239-291300-
NORTH FLORIDA

CITY           SKY/WX    TMP DP  RH WIND       PRES   REMARKS
MARIANNA       HVY RAIN  63  63 100 NW10      30.05R FOG
TALLAHASSEE    FOG       67  65  93 SE5       30.03R VSB 1/2
PERRY          CLOUDY    67  67 100 S6        30.06S
CROSS CITY       N/A     66  66 100 S5        30.07R
LAKE CITY      CLOUDY    63  63 100 CALM      30.07S FOG
GAINESVILLE    CLOUDY    64  64 100 W5        30.09R
MAYPORT NAS    CLOUDY    65  64  97 S6        30.07S
JACKSONVILLE   CLOUDY    64  64 100 W5        30.07R
JAX NAS        CLOUDY    68  64  87 S7        30.08F
JAX CRAIG      CLOUDY    65  64  97 S7        30.07S
JAX CECIL      CLOUDY    64  64 100 S3        30.08R FOG
FERNANDINA BEA CLOUDY    68  66  94 W3        30.07R
ST AUGUSTINE   FOG       65  64  97 W6        30.10R VSB 1

STATION/POSITION SKY/WX   TEMP    WIND        PRES    WAVE   SWELL
                          AIR SEA DIR/SP/G            HT/PER HT/PER
                          (F)     (DEG/KT/KT) (MB)    (FT/S) (FT/S)
SHELL POINT                64     180/  3/  4   N/A
KEATON BEACH               65     170/  8/  9 1018.4R
CEDAR KEY                  64     210/  2/  3 1019.1R
FERNANDINA                 64 62  250/  4/  5 1017.8R
30.7N   81.3W                 61                N/A     2/14   2/14
MAYPORT          NOT AVBL
31.4N   80.9W              61 59  220/  8/ 10 1017.8S   2/14   2/14
ST AUGUSTINE               64     220/  6/  7 1019.3R

$$
FLZ040-043>046-052-053-057-058-063-144-291300-
INTERIOR CENTRAL FLORIDA

CITY           SKY/WX    TMP DP  RH WIND       PRES   REMARKS
OCALA          FOG       63  61  94 S7        30.09R VSB 1/4
THE VILLAGES   FOG       61  61 100 SE3       29.99F VSB 0
LEESBURG       CLEAR     63  62  97 S5        30.10R FOG
SANFORD        CLEAR     61  60  97 SE5       30.10R
ORLANDO EXEC   PTCLDY    63  62  97 S3        30.10R
ORLANDO INTL   MOCLDY    62  62 100 SE3       30.11R FOG
KISSIMMEE      CLEAR     63  63 100 CALM      30.14
WINTER HAVEN   PTCLDY    65  63  93 CALM      30.12R
BARTOW         MOCLDY    57  57 100 CALM      30.12R
OKEECHOBEE     CLEAR     63  63 100 SE6       30.09F FOG

$$
FLZ041-047-054-059-064-141-147-291300-
EAST CENTRAL FLORIDA

CITY           SKY/WX    TMP DP  RH WIND       PRES   REMARKS
ORMOND BEACH   CLEAR     61  61 100 CALM      30.09  FOG
DAYTONA BEACH  FOG       61  61 100 SW3       30.09S VSB 1/2
DELAND         SUNNY    N/A N/A N/A MISG      30.10R
NEW SMYRNA BEA PTCLDY    61  61 100 S6        30.10
JFK SPACE CTR  FOG       63  61  94 NW2       30.11R VSB 1/4
TITUSVILLE     FOG       63  63 100 CALM      30.10  VSB 1/4
CAPE CANAVERAL FOG       63  62  97 S6        30.09S VSB 1/2
PATRICK AFB    CLEAR     68  67  99 SW6       30.11R
MELBOURNE      CLEAR     66  65  96 SW5       30.11R FOG
VERO BEACH     CLEAR     66  63  90 CALM      30.10S FOG
FT PIERCE      FOG       63  62  97 S5        30.10S VSB 1/2
STUART         PTCLDY    64  63  94 CALM      30.11S FOG

STATION/POSITION SKY/WX   TEMP    WIND        PRES    WAVE   SWELL
                          AIR SEA DIR/SP/G            HT/PER HT/PER
                          (F)     (DEG/KT/KT) (MB)    (FT/S) (FT/S)
28.5N   80.2W              74 76  210/ 12/ 14 1019.2R
28.9N   78.5W              76 77  180/ 14/ 16 1019.6R   4/14   3/14
TRIDENT PIER               68 69  170/  3/  3 1018.9R
28.4N   80.5W                 69                N/A     2/14   2/14
27.6N   80.2W                 75                N/A     3/14   2/14

$$
FLZ050-056-061-142-242-148-248-149-249-151-251-155-255-
160-260-291300-
WEST CENTRAL FLORIDA

CITY           SKY/WX    TMP DP  RH WIND       PRES   REMARKS
CRYSTAL RIVER  FOG       63  61  94 CALM      30.09R VSB 1/4
INVERNESS      LGT RAIN  63  63 100 S3        30.10R VSB 1/4
BROOKSVILLE    FOG       61  61 100 SE5       30.10R VSB 1/2
ZEPHYRHILLS    FOG       54  54 100 CALM      30.11R VSB 1/4
CLEARWATER     CLEAR     62  61  96 SE3       30.09R
TAMPA INTL     PTCLDY    66  63  90 CALM      30.10R
TAMPA EXEC     FOG       61  59  94 CALM      30.10S VSB 1/4
PLANT CITY     PTCLDY    64 N/A N/A S3        30.12R HAZE
MACDILL AFB    CLEAR     64  64 100 SW2       30.10R FOG
PETER O KNIGHT   N/A     64  64 100 CALM      30.10R FOG
ST PETERSBURG  CLEAR     66  64  93 SW3       30.08R
SARASOTA       CLEAR     64  64 100 SE6       30.09R
VENICE         CLOUDY    66  66 100 E3        30.11R

STATION/POSITION SKY/WX   TEMP    WIND        PRES    WAVE   SWELL
                          AIR SEA DIR/SP/G            HT/PER HT/PER
                          (F)     (DEG/KT/KT) (MB)    (FT/S) (FT/S)
CEDAR KEY                  64     210/  2/  3 1019.1R
28.5N   84.5W              73 71  200/ 10/ 12 1017.9R   2/ 5   2/ 6
27.3N   84.3W                 75                N/A     3/ 4
CLEARWATER BEACH           68 68  140/  5/  6 1018.6R
MIDDLE TAMPA BAY           67     180/  8/  9 1019.0S
VENICE                     67 69   90/  5/  6 1019.1R

$$
FLZ066-069-070-075>078-162-262-165-265-291300-
SOUTHWEST FLORIDA AND KEYS

CITY           SKY/WX    TMP DP  RH WIND       PRES   REMARKS
PUNTA GORDA    CLOUDY    63  62  97 CALM      30.12R
FT MYERS       CLEAR     65  64  97 CALM      30.08S
SOUTHWEST INTL CLEAR     65  63  93 SE5       30.08S
NAPLES         CLEAR     66  66 100 SE5       30.08R
MARCO ISLAND   MOSUNNY   64  61  88 E6        30.09R
MARATHON       CLEAR     76  72  87 SE8       30.09R
KEY WEST NAS   PTCLDY    75  71  87 SE7       30.10R
KEY WEST INTL  MOCLDY    77  73  87 S6        30.10R

STATION/POSITION SKY/WX   TEMP    WIND        PRES    WAVE   SWELL
                          AIR SEA DIR/SP/G            HT/PER HT/PER
                          (F)     (DEG/KT/KT) (MB)    (FT/S) (FT/S)
VENICE                     67 69   90/  5/  6 1019.1R
NAPLES                     68 77  130/  5/  7 1019.2R
26.0N   85.6W              74 75  150/  8/ 10 1018.0R   3/ 7   2/ 7
DRY TORTUGAS               73     120/  6/  6 1017.9F
NW FL BAY                  76     110/  6/  7 1018.4F
SAND KEY                   78     160/  7/  8 1019.0R
SOMBRERO KEY               77     140/ 15/ 16 1019.8R
LONG KEY                   77 75  150/ 12/ 14 1019.8R
MOLASSES REEF              77 78  150/ 15/ 17 1018.9R

$$
FLZ067-068-071>074-168-172>174-291300-
SOUTHEAST FLORIDA

CITY           SKY/WX    TMP DP  RH WIND       PRES   REMARKS
W PALM BEACH   LGT RAIN  72  71  97 CALM      30.10R
FT LAUDER-EXEC PTCLDY    70  24  17 CALM      30.10R
FT LAUDERDALE  PTCLDY    73  72  96 CALM      30.10R
POMPANO BEACH  CLEAR     70  69  97 W3        30.10R FOG
PEMBROKE PINES PTCLDY    68  67  96 CALM      30.12R
OPA LOCKA      PTCLDY    68  67  96 CALM      30.11R
MIAMI          MOCLDY    73  71  93 SE3       30.11R
WEST KENDALL   MOCLDY    69  68  96 CALM      30.11R FOG
HOMESTEAD      PTCLDY    73  72  94 SE3       30.11R

STATION/POSITION SKY/WX   TEMP    WIND        PRES    WAVE   SWELL
                          AIR SEA DIR/SP/G            HT/PER HT/PER
                          (F)     (DEG/KT/KT) (MB)    (FT/S) (FT/S)
PORT EVERGLADES            77     150/  8/ 12 1019.2
VIRGINIA KEY               76 75  170/  7/  9 1019.7R
LAKE WORTH                 77 76  170/ 13/ 17 1019.0R
SETTLEMENT POINT           75     130/  5/  6 1020.6R

$$



USA.gov is the U.S. government's official web portal to all federal, state and local government web resources and services.